Location: Unspecified
(51.5147°N, 7.4673°E)
Time: 17:31:02
(UTC+01:00)

Vanguard 1 - Pass Details

Date: 24 February 2026
Orbit: 653 x 3818 km, 34.2° (Epoch: 5 March)

Event Time Altitude Azimuth Distance (km) Brightness Sun altitude
Rises 20:33:42 0° 269° (W) 5,998 15.3 -24.2°
Reaches altitude 10° 20:38:40 10° 254° (WSW) 5,480 14.6 -25.0°
Maximum altitude 20:49:57 21° 214° (SW) 5,420 13.9 -26.6°
Drops below altitude 10° 21:03:58 10° 175° (S) 6,874 14.1 -28.6°
Sets 21:11:42 0° 162° (SSE) 7,932 14.3 -29.7°
